Time,TemperatureF,DewpointF,PressureIn,WindDirection,WindDirectionDegrees,WindSpeedMPH,WindSpeedGustMPH,Humidity,HourlyPrecipIn,Conditions,Clouds,dailyrainin,SoftwareType,DateUTC
2013-05-23 00:05:00,62.0,62.0,29.86,SW,225,0.0,3.0,100,0.00,,,0.00,Weather View 32 v70,2013-05-23 04:05:00,
2013-05-23 00:10:00,62.0,62.0,29.86,SW,225,0.0,5.0,100,0.00,,,0.00,Weather View 32 v70,2013-05-23 04:10:00,
2013-05-23 00:15:00,62.0,62.0,29.86,SW,225,0.0,5.0,100,0.00,,,0.00,Weather View 32 v70,2013-05-23 04:15:00,
2013-05-23 00:25:00,62.0,62.0,29.86,SW,225,0.0,5.0,100,0.00,,,0.00,Weather View 32 v70,2013-05-23 04:25:00,
2013-05-23 00:30:00,62.0,62.0,29.86,SW,225,4.0,5.0,100,0.00,,,0.00,Weather View 32 v70,2013-05-23 04:30:00,
2013-05-23 00:35:00,62.0,62.0,29.86,WSW,247,0.0,5.0,100,0.00,,,0.00,Weather View 32 v70,2013-05-23 04:35:00,
2013-05-23 00:40:00,62.0,62.0,29.86,West,270,3.0,5.0,100,0.00,,,0.00,Weather View 32 v70,2013-05-23 04:40:00,
2013-05-23 00:50:00,62.0,62.0,29.87,WSW,247,0.0,6.0,100,0.00,,,0.00,Weather View 32 v70,2013-05-23 04:50:00,
2013-05-23 01:00:00,62.0,62.0,29.87,SW,225,0.0,6.0,100,0.00,,,0.00,Weather View 32 v70,2013-05-23 05:00:00,
2013-05-23 01:10:00,62.0,62.0,29.87,SW,225,0.0,6.0,100,0.00,,,0.00,Weather View 32 v70,2013-05-23 05:10:00,
2013-05-23 01:20:00,62.0,62.0,29.87,WSW,247,0.0,6.0,100,0.00,,,0.00,Weather View 32 v70,2013-05-23 05:20:00,
2013-05-23 01:30:00,62.0,62.0,29.88,SW,225,0.0,6.0,100,0.00,,,0.00,Weather View 32 v70,2013-05-23 05:30:00,
2013-05-23 01:37:00,62.0,62.0,29.88,SW,225,0.0,6.0,100,0.00,,,0.00,Weather View 32 v70,2013-05-23 05:37:00,
2013-05-23 01:40:00,62.0,62.0,29.88,West,270,0.0,6.0,100,0.00,,,0.00,Weather View 32 v70,2013-05-23 05:40:00,
2013-05-23 01:45:00,62.0,62.0,29.88,SW,225,0.0,6.0,100,0.00,,,0.00,Weather View 32 v70,2013-05-23 05:45:00,
2013-05-23 01:50:00,62.0,62.0,29.88,SW,225,0.0,4.0,100,0.00,,,0.00,Weather View 32 v70,2013-05-23 05:50:00,
2013-05-23 02:00:00,62.0,62.0,29.88,WSW,247,0.0,4.0,100,0.00,,,0.00,Weather View 32 v70,2013-05-23 06:00:00,
2013-05-23 02:10:00,62.0,62.0,29.88,WSW,247,0.0,5.0,100,0.00,,,0.00,Weather View 32 v70,2013-05-23 06:10:00,
2013-05-23 02:20:00,62.0,62.0,29.86,WSW,247,0.0,5.0,100,0.00,,,0.00,Weather View 32 v70,2013-05-23 06:20:00,
2013-05-23 02:30:00,62.0,62.0,29.87,SW,225,0.0,5.0,100,0.00,,,0.00,Weather View 32 v70,2013-05-23 06:30:00,
2013-05-23 02:37:00,62.0,62.0,29.87,SW,225,4.0,5.0,100,0.00,,,0.00,Weather View 32 v70,2013-05-23 06:37:00,
2013-05-23 02:45:00,63.0,63.0,29.87,SW,225,0.0,5.0,100,0.00,,,0.00,Weather View 32 v70,2013-05-23 06:45:00,
2013-05-23 02:55:00,63.0,63.0,29.87,SW,225,3.0,6.0,100,0.00,,,0.00,Weather View 32 v70,2013-05-23 06:55:00,
2013-05-23 03:05:00,63.0,63.0,29.86,SW,225,0.0,6.0,100,0.00,,,0.00,Weather View 32 v70,2013-05-23 07:05:00,
2013-05-23 03:15:00,62.0,62.0,29.86,WSW,247,0.0,6.0,100,0.00,,,0.00,Weather View 32 v70,2013-05-23 07:15:00,
2013-05-23 03:25:00,62.0,62.0,29.86,WSW,247,0.0,6.0,100,0.00,,,0.00,Weather View 32 v70,2013-05-23 07:25:00,
2013-05-23 03:35:00,62.0,62.0,29.86,WSW,247,0.0,6.0,100,0.00,,,0.00,Weather View 32 v70,2013-05-23 07:35:00,
2013-05-23 03:45:00,62.0,62.0,29.86,SW,225,0.0,6.0,100,0.00,,,0.00,Weather View 32 v70,2013-05-23 07:45:00,
2013-05-23 04:00:00,62.0,62.0,29.86,SW,225,0.0,4.0,100,0.00,,,0.00,Weather View 32 v70,2013-05-23 08:00:00,
2013-05-23 04:05:00,62.0,62.0,29.86,SW,225,0.0,4.0,100,0.00,,,0.00,Weather View 32 v70,2013-05-23 08:05:00,
2013-05-23 04:15:00,62.0,62.0,29.86,WSW,247,0.0,5.0,100,0.00,,,0.00,Weather View 32 v70,2013-05-23 08:15:00,
2013-05-23 04:25:00,62.0,62.0,29.86,SW,225,0.0,6.0,100,0.00,,,0.00,Weather View 32 v70,2013-05-23 08:25:00,
2013-05-23 04:35:00,62.0,62.0,29.87,SW,225,0.0,6.0,100,0.00,,,0.00,Weather View 32 v70,2013-05-23 08:35:00,
2013-05-23 04:40:00,62.0,62.0,29.87,SW,225,0.0,6.0,100,0.00,,,0.00,Weather View 32 v70,2013-05-23 08:40:00,
2013-05-23 04:50:00,62.0,62.0,29.87,SW,225,0.0,6.0,100,0.00,,,0.00,Weather View 32 v70,2013-05-23 08:50:00,
2013-05-23 05:00:00,61.0,61.0,29.87,SW,225,0.0,6.0,100,0.00,,,0.00,Weather View 32 v70,2013-05-23 09:00:00,
2013-05-23 05:10:00,61.0,61.0,29.87,WSW,247,0.0,6.0,100,0.00,,,0.00,Weather View 32 v70,2013-05-23 09:10:00,
2013-05-23 05:20:00,61.0,61.0,29.87,SW,225,0.0,6.0,100,0.00,,,0.00,Weather View 32 v70,2013-05-23 09:20:00,
2013-05-23 05:30:00,61.0,61.0,29.87,SW,225,0.0,5.0,100,0.00,,,0.00,Weather View 32 v70,2013-05-23 09:30:00,
2013-05-23 05:39:00,61.0,61.0,29.87,SW,225,0.0,5.0,100,0.00,,,0.00,Weather View 32 v70,2013-05-23 09:39:00,
2013-05-23 05:45:00,61.0,61.0,29.87,SW,225,0.0,5.0,100,0.00,,,0.00,Weather View 32 v70,2013-05-23 09:45:00,
2013-05-23 05:55:00,62.0,62.0,29.88,SW,225,4.0,5.0,100,0.00,,,0.00,Weather View 32 v70,2013-05-23 09:55:00,
2013-05-23 06:05:00,61.0,61.0,29.87,SW,225,3.0,7.0,100,0.00,,,0.00,Weather View 32 v70,2013-05-23 10:05:00,
2013-05-23 06:15:00,61.0,61.0,29.88,SW,225,0.0,7.0,100,0.00,,,0.00,Weather View 32 v70,2013-05-23 10:15:00,
2013-05-23 06:25:00,62.0,62.0,29.88,WSW,247,0.0,7.0,100,0.00,,,0.00,Weather View 32 v70,2013-05-23 10:25:00,
2013-05-23 06:35:00,61.0,61.0,29.89,SW,225,0.0,7.0,100,0.00,,,0.00,Weather View 32 v70,2013-05-23 10:35:00,
2013-05-23 06:45:00,61.0,61.0,29.89,SW,225,4.0,7.0,100,0.00,,,0.00,Weather View 32 v70,2013-05-23 10:45:00,
2013-05-23 06:50:00,61.0,61.0,29.90,SW,225,4.0,7.0,100,0.00,,,0.00,Weather View 32 v70,2013-05-23 10:50:00,
2013-05-23 07:00:00,62.0,62.0,29.90,SW,225,0.0,7.0,100,0.00,,,0.00,Weather View 32 v70,2013-05-23 11:00:00,
2013-05-23 07:10:00,62.0,62.0,29.90,SW,225,0.0,7.0,100,0.00,,,0.00,Weather View 32 v70,2013-05-23 11:10:00,
2013-05-23 07:20:00,63.0,63.0,29.90,West,270,3.0,8.0,100,0.00,,,0.00,Weather View 32 v70,2013-05-23 11:20:00,
2013-05-23 07:30:00,63.0,63.0,29.90,WSW,247,3.0,8.0,100,0.00,,,0.00,Weather View 32 v70,2013-05-23 11:30:00,
2013-05-23 07:35:00,63.0,63.0,29.90,SW,225,5.0,8.0,100,0.00,,,0.00,Weather View 32 v70,2013-05-23 11:35:00,
2013-05-23 07:40:00,64.0,64.0,29.90,SW,225,3.0,8.0,100,0.00,,,0.00,Weather View 32 v70,2013-05-23 11:40:00,
2013-05-23 07:50:00,64.0,64.0,29.89,West,270,2.0,8.0,100,0.00,,,0.00,Weather View 32 v70,2013-05-23 11:50:00,
2013-05-23 08:00:00,65.0,65.0,29.89,SW,225,1.0,8.0,100,0.00,,,0.00,Weather View 32 v70,2013-05-23 12:00:00,
2013-05-23 08:10:00,65.0,65.0,29.89,WSW,247,5.0,10.0,100,0.00,,,0.00,Weather View 32 v70,2013-05-23 12:10:00,
2013-05-23 08:20:00,65.0,65.0,29.88,SW,225,0.0,10.0,100,0.00,,,0.00,Weather View 32 v70,2013-05-23 12:20:00,
2013-05-23 08:30:00,65.0,65.0,29.89,West,270,4.0,10.0,100,0.00,,,0.00,Weather View 32 v70,2013-05-23 12:30:00,
2013-05-23 08:40:00,64.0,64.0,29.90,SW,225,0.0,10.0,100,0.00,,,0.00,Weather View 32 v70,2013-05-23 12:40:00,
2013-05-23 08:50:00,64.0,64.0,29.90,SW,225,0.0,10.0,100,0.00,,,0.00,Weather View 32 v70,2013-05-23 12:50:00,
2013-05-23 08:55:00,65.0,65.0,29.90,WSW,247,0.0,10.0,100,0.00,,,0.00,Weather View 32 v70,2013-05-23 12:55:00,
2013-05-23 09:05:00,65.0,65.0,29.90,SW,225,0.0,10.0,100,0.00,,,0.00,Weather View 32 v70,2013-05-23 13:05:00,
2013-05-23 09:15:00,65.0,65.0,29.91,SW,225,5.0,10.0,100,0.00,,,0.00,Weather View 32 v70,2013-05-23 13:15:00,
2013-05-23 09:25:00,65.0,65.0,29.90,WSW,247,0.0,10.0,100,0.00,,,0.00,Weather View 32 v70,2013-05-23 13:25:00,
2013-05-23 09:35:00,65.0,65.0,29.91,WSW,247,0.0,10.0,100,0.00,,,0.00,Weather View 32 v70,2013-05-23 13:35:00,
2013-05-23 09:41:00,66.0,66.0,29.91,SW,225,5.0,10.0,100,0.00,,,0.00,Weather View 32 v70,2013-05-23 13:41:00,
2013-05-23 09:50:00,66.0,66.0,29.90,SW,225,3.0,10.0,100,0.00,,,0.00,Weather View 32 v70,2013-05-23 13:50:00,
2013-05-23 09:55:00,66.0,66.0,29.90,WSW,247,0.0,10.0,100,0.00,,,0.00,Weather View 32 v70,2013-05-23 13:55:00,
2013-05-23 10:00:00,66.0,66.0,29.90,West,270,0.0,10.0,100,0.00,,,0.00,Weather View 32 v70,2013-05-23 14:00:00,
2013-05-23 10:10:00,67.0,67.0,29.90,SW,225,3.0,10.0,100,0.00,,,0.00,Weather View 32 v70,2013-05-23 14:10:00,
2013-05-23 10:20:00,68.0,68.0,29.90,SW,225,0.0,9.0,100,0.00,,,0.00,Weather View 32 v70,2013-05-23 14:20:00,
2013-05-23 10:25:00,69.0,69.0,29.90,WSW,247,3.0,9.0,100,0.00,,,0.00,Weather View 32 v70,2013-05-23 14:25:00,
2013-05-23 10:35:00,70.0,70.0,29.89,West,270,0.0,9.0,100,0.00,,,0.00,Weather View 32 v70,2013-05-23 14:35:00,
2013-05-23 10:40:00,70.0,70.0,29.88,SW,225,7.0,9.0,100,0.00,,,0.00,Weather View 32 v70,2013-05-23 14:40:00,
2013-05-23 10:45:00,71.0,69.5,29.88,SW,225,5.0,9.0,95,0.00,,,0.00,Weather View 32 v70,2013-05-23 14:45:00,
2013-05-23 10:50:00,69.0,69.0,29.88,SW,225,0.0,9.0,100,0.00,,,0.00,Weather View 32 v70,2013-05-23 14:50:00,
2013-05-23 10:55:00,69.0,69.0,29.88,SW,225,7.0,9.0,100,0.00,,,0.00,Weather View 32 v70,2013-05-23 14:55:00,
2013-05-23 11:00:00,69.0,69.0,29.89,WNW,292,3.0,9.0,100,0.00,,,0.00,Weather View 32 v70,2013-05-23 15:00:00,
2013-05-23 11:10:00,70.0,70.0,29.89,West,270,0.0,10.0,100,0.00,,,0.00,Weather View 32 v70,2013-05-23 15:10:00,
2013-05-23 11:15:00,71.0,70.7,29.89,SW,225,4.0,10.0,99,0.00,,,0.00,Weather View 32 v70,2013-05-23 15:15:00,
2013-05-23 11:25:00,72.0,66.9,29.89,SW,225,8.0,10.0,84,0.00,,,0.00,Weather View 32 v70,2013-05-23 15:25:00,
2013-05-23 11:30:00,72.0,66.5,29.88,SW,225,9.0,10.0,83,0.00,,,0.00,Weather View 32 v70,2013-05-23 15:30:00,
2013-05-23 11:40:00,72.0,68.6,29.88,WSW,247,0.0,10.0,89,0.00,,,0.00,Weather View 32 v70,2013-05-23 15:40:00,
2013-05-23 11:50:00,72.0,67.9,29.88,WNW,292,0.0,10.0,87,0.00,,,0.00,Weather View 32 v70,2013-05-23 15:50:00,
2013-05-23 12:00:00,73.0,65.7,29.88,WSW,247,0.0,11.0,78,0.00,,,0.00,Weather View 32 v70,2013-05-23 16:00:00,
2013-05-23 12:10:00,72.0,66.2,29.88,SW,225,5.0,11.0,82,0.00,,,0.00,Weather View 32 v70,2013-05-23 16:10:00,
2013-05-23 12:20:00,71.0,65.2,29.88,SW,225,6.0,11.0,82,0.00,,,0.00,Weather View 32 v70,2013-05-23 16:20:00,
2013-05-23 12:30:00,72.0,66.9,29.88,SW,225,4.0,11.0,84,0.00,,,0.00,Weather View 32 v70,2013-05-23 16:30:00,
2013-05-23 12:40:00,74.0,66.7,29.88,SW,225,5.0,11.0,78,0.00,,,0.00,Weather View 32 v70,2013-05-23 16:40:00,
2013-05-23 12:45:00,73.0,66.4,29.88,SW,225,5.0,11.0,80,0.00,,,0.00,Weather View 32 v70,2013-05-23 16:45:00,
2013-05-23 12:55:00,74.0,64.8,29.88,WSW,247,5.0,11.0,73,0.00,,,0.00,Weather View 32 v70,2013-05-23 16:55:00,
2013-05-23 13:05:00,71.0,63.8,29.87,SW,225,6.0,16.0,78,0.00,,,0.00,Weather View 32 v70,2013-05-23 17:05:00,
2013-05-23 13:15:00,70.0,64.6,29.88,WSW,247,5.0,16.0,83,0.00,,,0.00,Weather View 32 v70,2013-05-23 17:15:00,
2013-05-23 13:25:00,71.0,65.2,29.88,SW,225,6.0,16.0,82,0.00,,,0.00,Weather View 32 v70,2013-05-23 17:25:00,
2013-05-23 13:35:00,73.0,63.8,29.88,SW,225,0.0,16.0,73,0.00,,,0.00,Weather View 32 v70,2013-05-23 17:35:00,
2013-05-23 13:44:00,73.0,64.6,29.88,SW,225,4.0,16.0,75,0.00,,,0.00,Weather View 32 v70,2013-05-23 17:44:00,
2013-05-23 13:50:00,73.0,63.0,29.87,SW,225,5.0,16.0,71,0.00,,,0.00,Weather View 32 v70,2013-05-23 17:50:00,
2013-05-23 14:00:00,71.0,62.3,29.87,West,270,4.0,15.0,74,0.00,,,0.00,Weather View 32 v70,2013-05-23 18:00:00,
2013-05-23 14:10:00,71.0,62.3,29.87,West,270,0.0,15.0,74,0.00,,,0.00,Weather View 32 v70,2013-05-23 18:10:00,
2013-05-23 14:20:00,71.0,62.6,29.88,NW,315,0.0,11.0,75,0.00,,,0.00,Weather View 32 v70,2013-05-23 18:20:00,
2013-05-23 14:30:00,73.0,61.8,29.88,SW,225,3.0,12.0,68,0.00,,,0.00,Weather View 32 v70,2013-05-23 18:30:00,
2013-05-23 14:40:00,72.0,60.8,29.88,SW,225,6.0,12.0,68,0.00,,,0.00,Weather View 32 v70,2013-05-23 18:40:00,
2013-05-23 14:50:00,72.0,60.4,29.88,SW,225,0.0,13.0,67,0.00,,,0.00,Weather View 32 v70,2013-05-23 18:50:00,
2013-05-23 15:00:00,72.0,60.0,29.89,WSW,247,8.0,13.0,66,0.00,,,0.00,Weather View 32 v70,2013-05-23 19:00:00,
2013-05-23 15:10:00,71.0,59.9,29.89,NNW,337,0.0,13.0,68,0.00,,,0.00,Weather View 32 v70,2013-05-23 19:10:00,
2013-05-23 15:20:00,71.0,59.0,29.90,West,270,4.0,13.0,66,0.00,,,0.00,Weather View 32 v70,2013-05-23 19:20:00,
2013-05-23 15:30:00,70.0,59.7,29.90,SW,225,4.0,13.0,70,0.00,,,0.00,Weather View 32 v70,2013-05-23 19:30:00,
2013-05-23 15:35:00,71.0,61.5,29.90,SW,225,3.0,13.0,72,0.00,,,0.00,Weather View 32 v70,2013-05-23 19:35:00,
2013-05-23 15:45:00,72.0,61.6,29.90,West,270,5.0,13.0,70,0.00,,,0.00,Weather View 32 v70,2013-05-23 19:45:00,
2013-05-23 15:55:00,70.0,60.5,29.90,SW,225,5.0,13.0,72,0.00,,,0.00,Weather View 32 v70,2013-05-23 19:55:00,
2013-05-23 16:05:00,70.0,60.1,29.90,West,270,4.0,13.0,71,0.00,,,0.00,Weather View 32 v70,2013-05-23 20:05:00,
2013-05-23 16:15:00,69.0,59.6,29.90,West,270,0.0,13.0,72,0.00,,,0.00,Weather View 32 v70,2013-05-23 20:15:00,
2013-05-23 16:25:00,68.0,61.9,29.91,SW,225,0.0,12.0,81,0.00,,,0.00,Weather View 32 v70,2013-05-23 20:25:00,
2013-05-23 16:35:00,65.0,65.0,29.92,West,270,4.0,12.0,100,0.00,,,0.00,Weather View 32 v70,2013-05-23 20:35:00,
2013-05-23 16:45:00,63.0,63.0,29.94,WSW,247,0.0,12.0,100,0.01,,,0.01,Weather View 32 v70,2013-05-23 20:45:00,
2013-05-23 16:50:00,62.0,62.0,29.94,SW,225,0.0,12.0,100,0.01,,,0.01,Weather View 32 v70,2013-05-23 20:50:00,
2013-05-23 17:00:00,63.0,63.0,29.94,West,270,3.0,12.0,100,0.01,,,0.01,Weather View 32 v70,2013-05-23 21:00:00,
2013-05-23 17:10:00,63.0,63.0,29.94,WSW,247,4.0,12.0,100,0.01,,,0.01,Weather View 32 v70,2013-05-23 21:10:00,
2013-05-23 17:20:00,63.0,63.0,29.94,WSW,247,0.0,10.0,100,0.01,,,0.01,Weather View 32 v70,2013-05-23 21:20:00,
2013-05-23 17:30:00,63.0,63.0,29.94,ENE,67,0.0,10.0,100,0.01,,,0.01,Weather View 32 v70,2013-05-23 21:30:00,
2013-05-23 17:35:00,64.0,64.0,29.94,East,90,0.0,10.0,100,0.01,,,0.01,Weather View 32 v70,2013-05-23 21:35:00,
2013-05-23 17:45:00,65.0,65.0,29.95,West,270,0.0,10.0,100,0.00,,,0.01,Weather View 32 v70,2013-05-23 21:45:00,
2013-05-23 17:55:00,64.0,64.0,29.94,SW,225,0.0,10.0,100,0.00,,,0.01,Weather View 32 v70,2013-05-23 21:55:00,
2013-05-23 18:05:00,63.0,63.0,29.95,NW,315,0.0,8.0,100,0.00,,,0.01,Weather View 32 v70,2013-05-23 22:05:00,
2013-05-23 18:15:00,63.0,63.0,29.95,West,270,0.0,8.0,100,0.00,,,0.01,Weather View 32 v70,2013-05-23 22:15:00,
2013-05-23 18:25:00,63.0,63.0,29.95,SW,225,5.0,9.0,100,0.00,,,0.01,Weather View 32 v70,2013-05-23 22:25:00,
2013-05-23 18:35:00,63.0,63.0,29.95,West,270,0.0,9.0,100,0.00,,,0.01,Weather View 32 v70,2013-05-23 22:35:00,
2013-05-23 18:45:00,63.0,63.0,29.95,SW,225,5.0,9.0,100,0.00,,,0.01,Weather View 32 v70,2013-05-23 22:45:00,
2013-05-23 18:50:00,63.0,62.7,29.96,West,270,2.0,9.0,99,0.00,,,0.01,Weather View 32 v70,2013-05-23 22:50:00,
2013-05-23 19:00:00,63.0,63.0,29.96,SW,225,3.0,9.0,100,0.00,,,0.01,Weather View 32 v70,2013-05-23 23:00:00,
2013-05-23 19:10:00,64.0,63.7,29.96,WSW,247,0.0,9.0,99,0.00,,,0.01,Weather View 32 v70,2013-05-23 23:10:00,
2013-05-23 19:20:00,63.0,63.0,29.96,West,270,0.0,9.0,100,0.00,,,0.01,Weather View 32 v70,2013-05-23 23:20:00,
2013-05-23 19:30:00,63.0,63.0,29.96,West,270,3.0,8.0,100,0.00,,,0.01,Weather View 32 v70,2013-05-23 23:30:00,
2013-05-23 19:40:00,62.0,62.0,29.96,WNW,292,0.0,8.0,100,0.00,,,0.01,Weather View 32 v70,2013-05-23 23:40:00,
2013-05-23 19:47:00,62.0,62.0,29.96,SW,225,0.0,8.0,100,0.00,,,0.01,Weather View 32 v70,2013-05-23 23:47:00,
2013-05-23 19:55:00,62.0,62.0,29.97,SW,225,0.0,8.0,100,0.00,,,0.01,Weather View 32 v70,2013-05-23 23:55:00,
2013-05-23 20:00:00,62.0,62.0,29.97,West,270,0.0,8.0,100,0.00,,,0.01,Weather View 32 v70,2013-05-24 00:00:00,
2013-05-23 20:10:00,62.0,62.0,29.97,SW,225,0.0,8.0,100,0.00,,,0.01,Weather View 32 v70,2013-05-24 00:10:00,
2013-05-23 20:20:00,62.0,62.0,29.98,NW,315,0.0,8.0,100,0.00,,,0.01,Weather View 32 v70,2013-05-24 00:20:00,
2013-05-23 20:30:00,62.0,62.0,29.98,WSW,247,0.0,8.0,100,0.00,,,0.01,Weather View 32 v70,2013-05-24 00:30:00,
2013-05-23 20:35:00,62.0,62.0,29.98,North,360,4.0,8.0,100,0.00,,,0.01,Weather View 32 v70,2013-05-24 00:35:00,
2013-05-23 20:45:00,61.0,61.0,29.98,SW,225,0.0,8.0,100,0.00,,,0.01,Weather View 32 v70,2013-05-24 00:45:00,
2013-05-23 20:50:00,61.0,61.0,29.98,SW,225,0.0,8.0,100,0.00,,,0.01,Weather View 32 v70,2013-05-24 00:50:00,
2013-05-23 20:55:00,61.0,61.0,29.98,West,270,0.0,8.0,100,0.00,,,0.01,Weather View 32 v70,2013-05-24 00:55:00,
2013-05-23 21:05:00,61.0,61.0,29.99,NE,45,0.0,6.0,100,0.00,,,0.01,Weather View 32 v70,2013-05-24 01:05:00,
2013-05-23 21:15:00,61.0,61.0,29.99,West,270,0.0,5.0,100,0.00,,,0.01,Weather View 32 v70,2013-05-24 01:15:00,
2013-05-23 21:25:00,61.0,61.0,29.99,SW,225,0.0,5.0,100,0.00,,,0.01,Weather View 32 v70,2013-05-24 01:25:00,
2013-05-23 21:30:00,61.0,61.0,29.99,SW,225,0.0,5.0,100,0.00,,,0.01,Weather View 32 v70,2013-05-24 01:30:00,
2013-05-23 21:40:00,61.0,61.0,29.99,SW,225,0.0,4.0,100,0.00,,,0.01,Weather View 32 v70,2013-05-24 01:40:00,
2013-05-23 21:48:00,61.0,61.0,29.99,SW,225,0.0,4.0,100,0.00,,,0.01,Weather View 32 v70,2013-05-24 01:48:00,
2013-05-23 21:55:00,60.0,60.0,30.00,WNW,292,0.0,13.0,100,0.10,,,0.11,Weather View 32 v70,2013-05-24 01:55:00,
2013-05-23 22:00:00,59.0,59.0,30.01,NNW,337,1.0,13.0,100,0.10,,,0.11,Weather View 32 v70,2013-05-24 02:00:00,
2013-05-23 22:10:00,58.0,58.0,30.02,NNW,337,4.0,13.0,100,0.11,,,0.12,Weather View 32 v70,2013-05-24 02:10:00,
2013-05-23 22:20:00,57.0,57.0,30.02,North,360,0.0,13.0,100,0.11,,,0.12,Weather View 32 v70,2013-05-24 02:20:00,
2013-05-23 22:30:00,57.0,57.0,30.02,East,90,0.0,13.0,100,0.11,,,0.12,Weather View 32 v70,2013-05-24 02:30:00,
2013-05-23 22:40:00,57.0,57.0,30.02,North,360,0.0,13.0,100,0.11,,,0.12,Weather View 32 v70,2013-05-24 02:40:00,
2013-05-23 22:49:00,57.0,57.0,30.02,NNE,22,0.0,13.0,100,0.11,,,0.12,Weather View 32 v70,2013-05-24 02:49:00,
2013-05-23 22:55:00,57.0,57.0,30.03,East,90,0.0,13.0,100,0.02,,,0.13,Weather View 32 v70,2013-05-24 02:55:00,
2013-05-23 23:05:00,57.0,57.0,30.03,NW,315,2.0,7.0,100,0.01,,,0.13,Weather View 32 v70,2013-05-24 03:05:00,
2013-05-23 23:10:00,57.0,57.0,30.03,NNW,337,0.0,7.0,100,0.01,,,0.13,Weather View 32 v70,2013-05-24 03:10:00,
2013-05-23 23:20:00,57.0,57.0,30.04,NW,315,0.0,7.0,100,0.01,,,0.13,Weather View 32 v70,2013-05-24 03:20:00,
2013-05-23 23:30:00,57.0,57.0,30.04,NW,315,1.0,7.0,100,0.01,,,0.13,Weather View 32 v70,2013-05-24 03:30:00,
2013-05-23 23:35:00,57.0,57.0,30.04,North,360,0.0,7.0,100,0.01,,,0.13,Weather View 32 v70,2013-05-24 03:35:00,
2013-05-23 23:45:00,57.0,57.0,30.04,NNE,22,0.0,7.0,100,0.01,,,0.13,Weather View 32 v70,2013-05-24 03:45:00,
2013-05-23 23:55:00,56.0,56.0,30.04,NW,315,1.0,12.0,100,0.00,,,0.13,Weather View 32 v70,2013-05-24 03:55:00,